Location: Alpha Ridge Park
(39.3209°N, 76.9128°W)
Time: 07:49:58
(UTC-04:00)

Transit 2A - Pass Details

Date: 30 May 2019
Orbit: 593 x 966 km, 66.7° (Epoch: 24 June)

Event Time Altitude Azimuth Distance (km) Brightness Sun altitude
Rises 16:23:30 0° 326° (NW) 3,495 9.7 44.5°
Reaches altitude 10° 16:26:10 10° 321° (NW) 2,499 9.1 44.0°
Maximum altitude 16:31:41 49° 248° (WSW) 1,025 8.9 43.0°
Drops below altitude 10° 16:36:37 10° 175° (S) 2,240 8.5 42.0°
Sets 16:38:55 0° 169° (S) 3,100 9.1 41.6°
